STARLINK-1209, 45206

Orbit data source: Space-Track

STARLINK-1209, 45206 is a payload satellite owned by SpaceX/Seattle (US) in LEO that was launched on Mon, 17 Feb 2020 UTC via an FALCON 9 launch vehicle from the Air Force Eastern Test Range (AFETR). Payload-class satellites include a variety of spacecraft equipped with specific instruments for various scientific and technological missions. These include communications satellites like Starlink; space stations such as the ISS; scientific satellites like the Hubble; Earth observation satellites from companies like Planet Labs, Umbra, and HawkEye 360; GPS; miniature CubeSats for education and research; and military/defense satellites.

Loading next visibility...
Identifier
45206, 2020-012AE
Orbit
LEO
Country
Flag of USUS
Related business
Manufacturer
SpaceX/Seattle
Mission
Partially operational Commercial Communications
Bus & Motor
STARLINK, Unknown motor
Mass
260 kg wet, ~248 kg dry
Launch date (UTC)
2020-02-17 (6 years ago)
Launch vehicle
FALCON 9
Launch site
Air Force Eastern Test Range (AFETR)
Object type
Payload
Rocket body
Debris
Shape & HBR
Box + 1 Pan, 10.1 m
Radar Cross Section
13.562 m², Large (>1 m²)

Expand to show TLE details & history
Last TLE update: 9 hours ago

TLE from 9 hours ago
0 STARLINK-1209
1 45206U 20012AE  26124.55041719  .00059673  00000-0  69834-3 0  9992
2 45206  53.0409  62.8753 0011986  97.0032 263.2344 15.60926204343613
Epoch: 2026-05-04T13:12Z
TLE epoch observation values (Epoch: 2026-05-04T13:12:36.045Z)
Latitude
-0.00002°
Longitude
2.28709°
Altitude
386.844 km
Speed
7.679 km/s
True Right ascension
04h 11m 30s
True Declination
0° 00' 00"
Sunlit
Object was in daylight at epoch
Visualization orbit readout
Latitude
Unknown
Longitude
Unknown
Altitude
Unknown
Speed
Unknown
Apparent Right ascension
Unknown
Apparent Declination
Unknown
Sunlit
N/A
Visualization observer readout
Local Sidereal Time
05:49:46
Azimuth
Unknown
Elevation
Unknown
Doppler factor
Unknown
Orbital elements
Apogee altitude
393.366 km
Perigee altitude
377.153 km
Semi-major axis
6,763.397 km
Eccentricity
0.0012
Inclination
53.0409°
RAAN
62.8753°
Arg. of periapsis
97.0032°
True anomaly
263.09803°
Mean anomaly
263.2344°
Eccentric anomaly
263.16621°
Mean motion
3.90208 °/min
Orbital period
92.26 mins
BSTAR
0.00069834
Loading maneuver chart data...
Computing Atmospheric mass density...
Loading historical data...
Loading historical data...
Loading historical data...
Loading historical data...
Loading historical data...
Loading historical data...
Loading historical data...

Documentation

Showing up to 5 results
|